This is the latest recevied weather packets stored in our database for station/object KC3UTO. If no packets are shown the sender has not sent any weather packets the latest 10 day(s).
| Time | Temp. | Humidity | Pressure | Rain* | Wind** | Luminosity | Snow |
|---|---|---|---|---|---|---|---|
| 1777491831 | 15.56° C | 62% | 1010.3 hPa | 0 mm | - | 75 W/m² | - |
| 1777491527 | 15.56° C | 60% | 1010.3 hPa | 0 mm | - | 79 W/m² | - |
| 1777491225 | 15.56° C | 64% | 1010.4 hPa | 0 mm | - | 75 W/m² | - |
| 1777490921 | 15.56° C | 62% | 1010.3 hPa | 0 mm | - | 108 W/m² | - |
| 1777490617 | 15.56° C | 63% | 1010.6 hPa | 0 mm | - | 95 W/m² | - |
| 1777490313 | 15.56° C | 61% | 1010.8 hPa | 0 mm | - | 55 W/m² | - |
| 1777490011 | 15.56° C | 60% | 1010.6 hPa | 0 mm | - | 42 W/m² | - |
| 1777489709 | 15.56° C | 61% | 1011 hPa | 0 mm | - | 81 W/m² | - |
| 1777489405 | 15.56° C | 59% | 1010.9 hPa | 0 mm | - | 115 W/m² | - |
| 1777489102 | 16.67° C | 57% | 1010.8 hPa | 0 mm | - | 106 W/m² | - |
| 1777488799 | 16.67° C | 53% | 1010.9 hPa | 0 mm | - | 115 W/m² | - |
| 1777488497 | 16.67° C | 51% | 1011.2 hPa | 0 mm | - | 72 W/m² | - |
| 1777487892 | 16.67° C | 53% | 1011.3 hPa | 0 mm | - | 164 W/m² | - |
| 1777487590 | 16.67° C | 52% | 1011.2 hPa | 0 mm | - | 200 W/m² | - |
| 1777487287 | 16.67° C | 52% | 1011.4 hPa | 0 mm | - | 127 W/m² | - |
| 1777486680 | 16.67° C | 53% | 1011.5 hPa | 0 mm | - | 183 W/m² | - |
| 1777486378 | 16.67° C | 53% | 1011.8 hPa | 0 mm | - | 128 W/m² | - |
| 1777486075 | 17.22° C | 53% | 1011.7 hPa | 0 mm | - | 155 W/m² | - |
| 1777485467 | 17.22° C | 53% | 1011.8 hPa | 0 mm | - | 259 W/m² | - |
| 1777484254 | 16.67° C | 54% | 1012.1 hPa | 0 mm | - | 204 W/m² | - |
| 1777483950 | 16.67° C | 53% | 1012.2 hPa | 0 mm | - | 202 W/m² | - |
| 1777483646 | 16.67° C | 54% | 1012.4 hPa | 0 mm | - | 227 W/m² | - |
| 1777483342 | 16.67° C | 55% | 1012.3 hPa | 0 mm | - | 179 W/m² | - |
| 1777483037 | 16.67° C | 54% | 1012.4 hPa | 0 mm | - | 194 W/m² | - |
| 1777481826 | 17.78° C | 53% | 1012.6 hPa | 0 mm | - | 361 W/m² | - |
* Rain latest hour (hover to see other rain measurements)
** Current wind speed in m/s (hover to see current wind gust speed)